Wind_Speed
10 9 9 8 8 7 7 7 7 7 7 7 7 8 8 9 10 10 11 12 13 14 15 16 16 17 18 19 20 20 21 22 23 24 24 24 24 24 25 25 25 25 25 24
9 9 8 8 8 7 7 7 7 7 8 8 9 9 10 11 12 13 14 15 16 16 17 18 19 20 21 22 23 23 24 24 25 26 27 27 27 27 27 27 27 27 27 27
9 9 8 8 8 8 8 8 8 8 9 10 10 11 12 12 13 14 16 17 18 19 19 20 21 22 23 24 26 26 27 28 29 29 30 30 31 30 30 30 30 30 30 30
11 11 10 9 10 10 10 10 10 10 10 11 12 12 13 14 16 17 18 19 20 21 22 23 24 25 26 27 28 29 30 31 32 33 34 34 34 34 34 33 33 33 33 32
12 12 11 11 11 11 12 11 12 12 13 13 14 15 16 17 18 19 21 22 23 24 25 26 27 29 30 31 32 32 33 34 35 36 37 37 37 38 37 37 36 36 36 35
14 14 14 13 14 14 14 14 14 15 16 17 17 18 19 20 21 22 24 25 26 27 28 30 31 32 33 34 35 36 37 38 39 40 40 40 41 41 40 40 40 39 39 38
17 17 17 16 16 17 17 17 17 18 19 20 20 21 22 23 24 25 27 28 29 30 31 33 34 35 36 37 38 39 40 41 42 43 43 44 44 44 44 44 43 43 43 42
20 20 19 19 19 20 20 20 20 21 21 22 23 24 25 26 27 28 29 30 31 33 34 36 37 39 40 41 41 42 44 45 46 46 47 47 47 47 47 47 47 47 46 46
22 22 22 22 22 22 22 23 23 24 24 25 26 27 28 29 30 31 32 33 35 36 38 39 41 42 43 44 45 46 47 48 49 50 51 51 51 51 51 51 50 49 48 47
25 25 25 25 25 25 25 26 26 27 27 28 29 30 31 32 33 34 35 37 38 40 42 43 44 46 47 48 49 51 51 52 53 54 55 55 54 54 53 52 52 51 50 49
28 28 28 28 28 28 28 29 29 30 30 31 32 33 34 35 36 38 39 41 42 44 45 46 48 49 51 52 54 55 56 56 57 58 58 57 56 55 55 54 53 52 51 50
31 31 31 30 30 31 31 32 32 32 33 34 35 36 37 38 40 41 43 44 46 47 49 50 52 53 55 56 57 58 59 59 60 61 60 59 58 56 55 54 53 53 53 52
34 34 34 33 34 34 34 34 34 35 36 37 38 39 40 41 43 44 46 48 49 51 53 54 56 58 59 60 60 61 62 62 63 62 61 60 58 57 56 54 54 53 52 51
37 37 36 36 36 36 36 37 37 38 39 40 41 42 44 45 47 48 50 52 53 55 57 59 60 61 62 62 62 63 64 64 64 63 61 60 58 57 56 55 53 52 51 50
40 39 38 38 38 38 38 39 40 41 42 43 44 46 47 49 50 52 53 55 57 58 60 62 63 63 63 64 64 64 64 63 63 63 61 60 58 57 55 54 53 51 50 49
40 39 40 39 39 40 40 41 42 43 44 46 47 48 50 52 53 55 56 58 59 61 63 64 64 64 64 64 64 63 63 62 62 61 60 58 57 55 53 52 50 49 48 47
40 40 41 41 41 41 42 43 44 45 46 48 49 51 52 54 56 57 58 60 61 63 64 65 65 65 64 64 64 63 63 62 61 59 57 55 54 52 50 49 47 47 47 46
40 41 41 42 43 43 44 45 46 47 48 50 52 53 55 56 58 59 60 61 63 64 64 65 65 65 64 64 63 63 62 61 59 57 55 53 51 49 48 47 46 46 46 45
42 42 43 44 44 45 46 47 48 49 51 52 54 55 57 58 59 60 61 63 64 64 64 65 65 64 64 63 62 62 61 59 57 55 53 51 49 47 46 45 45 44 44 44
44 44 45 45 46 47 48 49 50 51 53 54 56 57 58 59 60 61 62 63 64 65 65 64 64 63 62 61 60 60 59 57 54 52 50 48 46 44 44 43 43 42 42 41
46 47 47 47 48 49 50 51 52 54 55 56 57 58 59 60 61 62 63 64 63 64 64 63 63 62 61 59 58 57 55 53 51 49 48 46 44 43 42 42 42 41 40 39
48 48 49 49 50 51 52 53 54 56 57 57 58 59 60 61 62 63 63 63 63 63 62 62 61 60 59 57 56 54 52 50 48 47 46 44 42 41 41 41 41 40 39 38
50 50 51 52 53 54 54 55 57 57 58 58 59 59 60 61 62 62 62 62 62 61 61 60 59 58 57 55 54 53 50 48 46 45 43 42 41 40 40 39 39 38 37 36
53 54 55 55 56 56 56 57 58 58 58 58 59 60 60 61 61 61 61 61 60 60 59 58 56 55 54 53 52 50 48 46 45 43 42 41 40 39 39 38 37 36 34 33
56 56 56 56 57 57 57 57 57 57 57 58 58 59 60 60 60 60 60 60 59 59 58 55 54 53 52 51 50 48 46 44 43 42 41 40 39 38 38 36 34 33 31 30
57 57 57 57 57 57 57 57 56 57 57 57 57 58 58 59 59 59 59 58 58 56 55 53 52 51 50 48 47 45 43 42 41 39 38 38 36 35 34 33 32 30 28 27
57 57 57 57 56 56 56 56 56 56 56 56 56 56 57 57 57 57 56 55 54 52 50 49 49 48 46 45 43 42 41 40 39 37 36 35 33 32 32 31 29 27 25 24
Wind_Direction
195 197 200 201 202 204 209 215 223 236 249 262 274 285 295 299 301 304 307 309 311 311 311 311 311 312 312 312 311 310 309 309 308 307 306 305 303 302 301 301 300 298 296 294
202 205 208 210 210 212 217 225 235 247 258 268 278 288 296 299 300 301 303 305 307 308 308 309 310 310 311 311 310 309 308 307 306 306 305 304 302 300 299 298 296 295 294 291
216 219 220 221 227 231 236 242 251 258 265 273 281 288 293 296 298 300 302 303 305 306 307 307 308 308 308 308 308 307 306 305 305 304 303 303 301 299 298 296 294 292 291 289
227 232 236 235 242 246 250 256 262 268 273 279 284 289 292 294 296 299 301 302 303 304 305 306 306 306 307 306 306 305 304 304 303 302 301 300 299 298 297 295 293 291 289 287
238 243 247 249 252 256 262 265 269 272 276 281 285 288 292 293 295 297 299 301 302 303 305 305 306 306 306 306 305 304 304 303 302 301 300 299 298 297 295 293 291 289 287 285
247 252 255 256 259 264 268 269 273 276 279 282 286 288 291 293 295 297 299 301 302 304 305 306 306 306 305 305 305 304 304 303 301 300 299 298 297 295 293 290 288 287 284 282
254 258 260 261 262 266 270 273 276 277 279 282 286 289 292 295 297 299 300 302 303 304 305 306 306 306 305 304 304 303 303 303 302 300 299 297 296 294 292 289 287 285 283 280
257 260 263 264 266 269 272 274 276 278 280 284 287 290 293 295 297 298 300 301 302 304 305 306 306 306 305 305 304 303 303 302 301 300 298 297 295 293 291 288 286 284 282 279
259 262 264 265 267 270 272 275 277 280 283 286 288 291 293 295 296 298 299 301 302 303 304 305 306 305 305 305 304 304 303 301 301 300 298 296 294 292 290 288 286 284 281 278
261 263 265 267 269 270 273 276 279 282 284 287 288 290 292 294 296 297 298 299 301 302 303 305 305 305 305 304 304 303 302 301 300 299 298 295 293 291 289 288 286 284 280 277
263 265 266 268 270 272 275 277 280 282 284 286 288 290 292 294 295 296 297 298 300 301 303 304 305 305 305 304 304 303 303 302 301 300 298 295 292 290 288 286 285 283 280 277
264 266 268 269 271 274 276 278 280 282 284 286 289 290 292 293 294 295 297 298 300 302 303 305 305 305 304 304 303 303 303 303 302 301 298 295 292 289 287 285 283 282 279 276
265 267 269 271 273 275 277 279 280 283 285 288 289 291 293 294 295 296 298 300 301 302 304 304 305 304 304 303 303 303 303 303 302 300 298 296 293 290 288 285 283 280 278 275
265 268 270 272 274 276 277 279 282 284 287 288 290 292 293 294 296 297 299 300 301 303 303 304 304 304 303 303 303 303 303 302 301 300 298 296 293 291 289 287 283 278 275 272
267 269 271 272 274 276 278 280 283 285 287 289 290 292 294 295 296 298 299 301 302 302 303 304 304 303 303 303 303 303 303 302 301 300 298 296 293 290 289 287 284 279 274 270
268 270 271 273 275 277 279 281 283 286 287 289 291 293 294 296 297 299 300 301 301 302 303 304 304 303 303 302 302 302 302 302 301 300 299 296 293 290 288 285 282 278 275 271
268 270 273 275 276 278 280 283 285 287 288 290 292 293 295 296 298 299 300 301 301 302 303 303 303 303 303 302 302 302 302 302 301 301 299 297 293 290 288 285 282 278 274 271
269 271 273 276 278 280 282 284 286 287 289 290 292 294 296 297 298 298 299 300 301 302 303 303 303 303 303 302 302 302 302 302 301 300 299 296 293 290 288 286 285 279 274 270
270 272 274 277 279 281 283 285 286 288 290 292 293 294 296 297 297 298 299 300 301 302 302 303 303 303 303 303 302 302 302 302 301 300 298 295 293 290 288 286 285 282 277 271
271 273 276 278 280 282 283 285 287 289 291 292 294 294 295 296 297 298 300 301 301 302 302 303 303 303 303 303 302 302 302 302 300 299 298 296 293 290 288 286 285 283 279 274
273 275 277 279 281 283 285 287 289 290 291 292 293 294 295 296 297 298 300 300 301 302 302 302 303 303 303 302 302 302 302 301 299 298 297 296 293 290 288 287 285 284 280 275
275 277 278 280 282 284 286 288 289 290 291 292 293 294 295 296 297 298 300 300 301 301 301 301 302 301 301 301 301 302 302 301 299 298 297 295 293 291 289 288 286 285 281 276
277 278 280 282 283 285 287 288 289 290 291 292 292 293 295 296 297 299 299 300 300 300 300 301 301 300 300 301 301 302 301 299 298 297 296 294 293 291 290 289 288 286 281 276
278 280 281 283 284 286 287 288 288 289 290 291 292 293 294 296 297 298 299 299 299 299 299 300 300 300 300 300 301 301 301 299 297 296 294 293 292 292 291 290 288 286 282 275
279 281 282 283 285 286 286 287 288 288 289 291 292 293 294 295 296 297 298 298 298 299 299 299 299 299 299 300 300 301 300 299 297 295 294 293 292 291 290 289 287 285 281 273
279 281 282 283 284 285 285 286 286 288 289 290 291 292 293 294 296 297 297 297 298 298 298 299 299 299 300 300 300 300 299 298 297 296 294 293 291 291 290 288 285 282 278 270
278 280 280 281 282 283 284 285 286 287 288 289 290 292 293 294 295 296 297 297 298 298 298 298 299 300 300 299 299 298 298 298 297 296 294 292 290 290 289 287 282 278 274 267
Height
5845 5846 5847 5848 5849 5849 5850 5851 5851 5852 5851 5852 5851 5851 5850 5849 5849 5848 5847 5846 5844 5843 5841 5840 5838 5836 5834 5833 5831 5829 5827 5825 5823 5820 5819 5817 5814 5813 5811 5809 5807 5805 5803 5801
5844 5844 5845 5846 5847 5847 5848 5848 5849 5849 5849 5849 5848 5847 5847 5846 5845 5844 5843 5842 5841 5839 5837 5836 5834 5832 5830 5828 5826 5824 5822 5819 5817 5815 5813 5811 5809 5806 5804 5802 5801 5799 5797 5795
5842 5842 5843 5844 5845 5845 5845 5846 5846 5846 5847 5845 5845 5844 5843 5842 5842 5841 5839 5838 5836 5835 5833 5831 5829 5827 5825 5822 5820 5818 5815 5813 5811 5808 5806 5804 5801 5799 5797 5795 5793 5791 5789 5788
5839 5840 5841 5844 5842 5842 5842 5842 5842 5842 5842 5842 5841 5840 5839 5839 5837 5836 5835 5833 5831 5829 5827 5825 5823 5821 5818 5816 5813 5811 5808 5806 5803 5801 5798 5796 5793 5791 5788 5786 5784 5782 5781 5779
5836 5836 5837 5839 5838 5838 5838 5839 5838 5838 5838 5837 5836 5835 5835 5834 5832 5831 5829 5827 5825 5823 5821 5819 5816 5814 5811 5808 5805 5802 5799 5797 5794 5791 5789 5786 5783 5781 5778 5776 5773 5772 5770 5769
5832 5832 5834 5836 5834 5833 5835 5834 5834 5833 5833 5832 5831 5830 5830 5828 5826 5824 5823 5821 5819 5816 5814 5811 5808 5805 5802 5799 5796 5793 5790 5787 5784 5781 5778 5775 5772 5769 5766 5764 5762 5760 5758 5757
5827 5827 5828 5830 5829 5829 5830 5831 5829 5828 5827 5826 5825 5825 5823 5821 5819 5817 5815 5813 5811 5808 5805 5802 5799 5796 5792 5789 5786 5783 5779 5776 5772 5769 5766 5763 5760 5757 5754 5751 5749 5747 5745 5744
5822 5822 5825 5823 5823 5824 5824 5823 5822 5821 5821 5820 5819 5817 5815 5813 5811 5809 5807 5804 5802 5799 5796 5792 5789 5785 5782 5778 5775 5771 5767 5763 5760 5756 5752 5748 5745 5742 5739 5736 5733 5731 5729 5728
5817 5818 5817 5817 5817 5817 5816 5816 5815 5814 5813 5812 5811 5809 5807 5805 5803 5800 5798 5795 5792 5789 5786 5782 5778 5774 5770 5766 5762 5758 5753 5749 5745 5741 5736 5732 5729 5725 5722 5718 5716 5713 5712 5711
5809 5809 5809 5809 5809 5809 5808 5808 5807 5806 5805 5803 5802 5800 5798 5796 5793 5790 5788 5785 5782 5778 5774 5770 5766 5761 5757 5752 5748 5743 5738 5734 5729 5724 5719 5715 5711 5707 5703 5700 5697 5695 5693 5693
5800 5800 5800 5801 5800 5800 5800 5799 5798 5797 5795 5794 5792 5790 5788 5785 5783 5780 5777 5773 5770 5766 5762 5757 5752 5747 5742 5737 5732 5727 5722 5716 5711 5705 5701 5696 5692 5688 5684 5682 5678 5676 5675 5674
5791 5791 5792 5792 5791 5791 5790 5789 5788 5787 5785 5783 5782 5779 5777 5774 5771 5768 5764 5761 5757 5752 5748 5743 5737 5732 5726 5721 5715 5709 5704 5698 5692 5686 5680 5675 5671 5669 5665 5662 5660 5657 5655 5654
5780 5781 5781 5781 5781 5780 5779 5778 5777 5776 5774 5772 5770 5768 5765 5762 5758 5755 5751 5747 5742 5737 5732 5727 5721 5715 5709 5703 5697 5691 5685 5679 5672 5666 5660 5655 5651 5647 5645 5643 5640 5638 5635 5634
5769 5770 5770 5770 5769 5769 5768 5767 5765 5764 5762 5760 5757 5755 5751 5748 5744 5740 5736 5732 5727 5721 5716 5710 5704 5697 5691 5685 5679 5672 5666 5659 5652 5646 5640 5635 5630 5626 5623 5621 5620 5618 5616 5614
5758 5758 5758 5758 5758 5757 5756 5754 5753 5751 5749 5747 5744 5741 5737 5734 5730 5725 5721 5715 5710 5705 5698 5692 5686 5679 5672 5666 5660 5653 5646 5640 5633 5627 5621 5615 5611 5607 5603 5600 5598 5597 5596 5596
5745 5746 5746 5745 5745 5744 5743 5741 5740 5738 5735 5732 5729 5726 5722 5718 5714 5709 5704 5699 5693 5687 5681 5674 5668 5661 5654 5647 5641 5634 5628 5621 5614 5608 5601 5596 5591 5587 5584 5581 5579 5577 5577 5576
5733 5733 5732 5732 5731 5730 5729 5727 5726 5723 5721 5718 5714 5711 5707 5703 5698 5693 5687 5682 5675 5669 5662 5656 5649 5643 5636 5629 5622 5615 5609 5603 5596 5589 5583 5577 5572 5568 5565 5562 5560 5559 5559 5558
5719 5719 5719 5718 5717 5716 5714 5713 5710 5708 5705 5702 5699 5695 5691 5686 5681 5676 5670 5665 5658 5652 5645 5637 5630 5624 5617 5610 5603 5597 5590 5584 5578 5571 5566 5560 5555 5551 5548 5545 5543 5541 5541 5541
5704 5705 5704 5703 5702 5701 5699 5697 5695 5692 5689 5686 5683 5678 5674 5669 5664 5658 5653 5647 5640 5634 5628 5620 5613 5606 5599 5592 5585 5579 5572 5566 5560 5554 5548 5543 5539 5535 5532 5529 5526 5524 5523 5522
5690 5690 5689 5688 5687 5686 5684 5681 5679 5676 5673 5669 5665 5661 5656 5651 5646 5641 5635 5629 5622 5615 5609 5602 5595 5589 5582 5575 5568 5561 5555 5549 5543 5537 5532 5527 5523 5520 5516 5514 5511 5508 5507 5506
5675 5674 5673 5672 5671 5669 5667 5665 5662 5659 5655 5651 5647 5643 5638 5633 5628 5622 5616 5611 5605 5597 5591 5584 5577 5571 5564 5557 5551 5545 5538 5532 5526 5521 5516 5512 5508 5505 5502 5499 5496 5494 5492 5491
5659 5658 5657 5656 5654 5653 5650 5647 5644 5641 5637 5633 5629 5624 5620 5615 5610 5604 5598 5593 5587 5580 5573 5567 5560 5553 5547 5540 5534 5529 5523 5517 5511 5506 5502 5498 5494 5491 5488 5485 5482 5480 5478 5476
5642 5641 5640 5639 5637 5635 5632 5629 5626 5623 5619 5615 5611 5606 5601 5596 5591 5586 5581 5575 5568 5562 5555 5550 5543 5537 5530 5524 5519 5513 5508 5502 5497 5492 5488 5484 5481 5477 5474 5471 5469 5466 5464 5462
5624 5623 5622 5620 5618 5616 5614 5611 5607 5604 5601 5596 5592 5587 5583 5578 5573 5567 5562 5557 5550 5544 5538 5533 5527 5521 5514 5509 5503 5498 5493 5488 5483 5479 5475 5471 5468 5464 5461 5458 5456 5453 5451 5450
5606 5605 5604 5602 5600 5598 5595 5592 5589 5586 5582 5578 5574 5569 5564 5559 5555 5550 5544 5539 5533 5527 5521 5517 5511 5505 5499 5494 5489 5484 5479 5474 5469 5465 5462 5458 5455 5452 5449 5446 5444 5441 5439 5438
5587 5586 5585 5583 5581 5579 5576 5574 5571 5568 5564 5560 5557 5552 5547 5542 5537 5532 5527 5522 5516 5510 5505 5500 5495 5490 5485 5480 5475 5470 5465 5461 5456 5452 5449 5445 5443 5440 5437 5434 5432 5430 5429 5428
5569 5568 5566 5565 5562 5560 5557 5555 5552 5549 5546 5542 5539 5534 5529 5525 5520 5515 5510 5505 5500 5495 5490 5485 5480 5476 5471 5466 5462 5457 5452 5448 5444 5440 5437 5434 5431 5429 5426 5424 5422 5420 5420 5419